Regional Weather Roundup
Issued by NWS Upton, NY

Current Version | Previous Version | Graphics & Text | Print | Product List | Glossary Off
Versions: 1 2 3 4 5 6 7 8 9 10 11 12 13 14 15 16 17 18 19 20 21 22 23 24 25 26 27 28 29 30 31 32 33

000
ASUS41 KOKX 090908
RWROKX

REGIONAL WEATHER ROUNDUP
NATIONAL WEATHER SERVICE NEW YORK NY
400 AM EST FRI DEC 09 2016

NOTE: "FAIR" INDICATES FEW OR NO CLOUDS BELOW 12,000 FEET WITH NO
SIGNIFICANT WEATHER AND/OR OBSTRUCTIONS TO VISIBILITY.

NYZ071-072-176-178-NJZ106-104-091000-
NEW YORK CITY METRO AREA

CITY           SKY/WX    TMP DP  RH WIND       PRES   REMARKS
Central Park   NOT AVBL
Wall St Helipt SUNNY     34  21  59 W12G22    30.05S WCI  25
Bronx Bot Gard NOT AVBL
LaGuardia APRT CLEAR     34  17  50 W13       30.04R WCI  25
Kennedy INTL   CLEAR     33  16  49 W20       30.05S WCI  21
Breezy Point     N/A     32 N/A N/A W17G29      N/A  WCI  21
Newark/Liberty CLEAR     31  17  56 W16       30.05R WCI  20
Teterboro      CLEAR     32  16  51 W7        30.04R WCI  26
$$

NYZ177-179-078>081-091000-
LONG ISLAND NEW YORK

CITY           SKY/WX    TMP DP  RH WIND       PRES   REMARKS
Jones Beach      N/A     34 N/A N/A W23G31      N/A  WCI  22
Matinecock PT  NOT AVBL
Farmingdale    CLEAR     32  16  51 W13       30.02R WCI  22
MacArthur/ISP  CLEAR     30  18  60 W7        30.00R WCI  23
Shirley        CLEAR     30  19  63 W7        30.00R WCI  23
Westhampton    CLEAR     32  16  51 W10       29.99S WCI  24
Southampton    NOT AVBL
Bridgehampton  NOT AVBL
East Hampton     N/A     34  19  56 W9G20     29.96R WCI  26
Montauk          N/A     37  22  54 W15G29    29.95S WCI  28
$$

NYZ052-065-067-091000-
HUDSON VALLEY

CITY           SKY/WX    TMP DP  RH WIND       PRES   REMARKS
White Plains   PTCLDY    32  15  49 W14G21    29.99R WCI  22
Newburgh       MOCLDY    30 N/A N/A NW14G25   29.99R WCI  20
Montgomery     CLOUDY    32  18  56 W7        29.98S WCI  26
Poughkeepsie   CLOUDY    31  18  58 W14       29.98F WCI  21
Albany         CLOUDY    31  21  66 W8        29.94S WCI  23
$$

NJZ001-105-106-008-010-013-015-019>022-104-091000-
NEW JERSEY

CITY           SKY/WX    TMP DP  RH WIND       PRES   REMARKS
Newark/Liberty CLEAR     31  17  56 W16       30.05R WCI  20
Teterboro      CLEAR     32  16  51 W7        30.04R WCI  26
Caldwell       CLEAR     32  16  51 W7        30.05R WCI  26
Somerville     CLEAR     31  16  54 VRB6      30.06R WCI  25
Linden           N/A     31  17  55 W10       30.06S WCI  22
Sussex         CLOUDY    31  17  56 W5        30.01S WCI  26
Andover          N/A     29  17  61 VRB6      30.03R WCI  23
Trenton        PTCLDY    30  15  53 W9        30.09S WCI  22
Millville      CLEAR     30  17  58 W16       30.16R WCI  19
Atlantic City  PTCLDY    30  15  53 W12       30.13R WCI  20
Wrightstown    CLEAR     30  16  56 W13       30.08R WCI  20
Toms River     PTCLDY    30  18  60 W13       30.10S WCI  20
Belmar         CLEAR     29  17  61 W16       30.07S WCI  17
$$

PAZ047>061-062-071-091000-
EASTERN PENNSYLVANIA

CITY           SKY/WX    TMP DP  RH WIND       PRES   REMARKS
Philadelphia   PTCLDY    31  14  49 W16G22    30.16R WCI  20
Allentown      CLEAR     30  16  56 W13       30.09S WCI  20
Scranton       CLOUDY    29  17  61 SW8       30.03S WCI  21
$$

CTZ002-004>006-009-010-012-RIZ004-006-007-MAZ004-011-015-091000-
SOUTHERN NEW ENGLAND
 IN CT

CITY           SKY/WX    TMP DP  RH WIND       PRES   REMARKS
Bradley INTL   PTCLDY    28  16  60 CALM      29.93R
Hartford       CLEAR     30  20  66 W6        29.95R WCI  24
Danbury        CLEAR     31  16  54 W20G25    29.97R WCI  19
Wtrbury/Oxford CLEAR     28  16  59 W8        29.95R WCI  20
Bridgeport     CLEAR     34  17  50 W10       29.99R WCI  26
Meriden        CLEAR     33  18  53 W8        29.96R WCI  26
New Haven      CLEAR     34  19  54 W9        29.97S WCI  27
Chester          N/A     30  19  64 CALM      29.94R
Groton         CLEAR     34  21  59 W7        29.94S WCI  28
Wilimantic     CLEAR     32  20  61 VRB7      29.92S WCI  26

 IN RI

CITY           SKY/WX    TMP DP  RH WIND       PRES   REMARKS
Providence     CLEAR     31  18  58 W9        29.90S WCI  23
Block Island   CLEAR     35  21  56 W16G22    29.93R WCI  25
Westerly       CLEAR     33  19  56 VRB6      29.94S WCI  28
 IN MA

CITY           SKY/WX    TMP DP  RH WIND       PRES   REMARKS
Boston         CLEAR     32  17  54 SW9G21    29.85S WCI  24
Worcester      CLEAR     27  14  58 W22G30    29.80F WCI  13
Westfield      PTCLDY    31  19  61 SW10G20   29.90S WCI  22
Provincetown   CLEAR     34  19  54 W20G26    29.85S WCI  23
Nantucket      CLEAR     35  18  49 W18G26    29.88S WCI  24
$$

ANZ330-335-338-340-345-350-353-355-091000-
COASTAL MARINE OBSERVATIONS


STATION/POSITION TIME  SKY/WX   TEMP    WIND        PRES    VSBY  WAVE
                                AIR SEA DIR/SP/G                  HT/PER
                 (UTC)          (F)     (DEG/KT/KT) (MB)    (MI)  (FT/S)
NY HARB ENTRANCE 0850            36 52  280/ 23/ 29 1016.8          5/ 5
20 S FIRE ISLAND 0850            37 53  310/ 27/ 33 1015.9          8/ 6
GREAT SOUTH BAY  0815            35 42                N/A
23 SSW MONTAUK P 0750            39 54  280/ 21/ 27 1014.3          6/ 7
15 E BARNEGAT LI 0830               52                N/A           5/ 5
HUDSON CANYON    0750            41 58              1015.7         10/ 8
KINGS POINT      0836            34 46              1016.7
EXECUTION ROCKS  0845            35     260/ 12/ 16   N/A
CENTRAL LI SOUND 0815            38 49  290/ 21/ 29   N/A           4/ 5
EASTERN LI SOUND NOT AVBL
ROBBINS REEF     0848            33     280/ 18/ 21 1017.5
$$


>>>>>>>>>>>>>>>>>>>>>>>>>>>> KEY <<<<<<<<<<<<<<<<<<<<<<<<<<<
>                                                          <
>     SKY/WX - Sky Condition/Present Weather               <
>     TMP    - Temperature in Fahrenheit                   <
>     DP     - Dew Point in Fahrenheit                     <
>     RH     - Relative Humidity in Percent                <
>     WIND   - Direction (from) and Speed in MPH           <
>     PRES   - Mean Sea Level Pressure (inches of Hg)      <
>     WCI    - Wind Chill Index                            <
>     VSB    - VISIBILITY IN MILES                         <
>     HX     - HEAT INDEX                                  <
>     TC     - TEMPERATURE IN CELSIUS                      <
>     VRB    - VARIABLE WIND DIRECTION                     <
>                                                          <
>>>>>>>>>>>>>>>>>>>>>>>>>>>> KEY <<<<<<<<<<<<<<<<<<<<<<<<<<<




USA.gov is the U.S. government's official web portal to all federal, state and local government web resources and services.